TimeCST,TemperatureF,Dew PointF,Humidity,Sea Level PressureIn,VisibilityMPH,Wind Direction,Wind SpeedMPH,Gust SpeedMPH,PrecipitationIn,Events,Conditions,WindDirDegrees,DateUTC
12:54 AM,30.0,24.1,79,30.19,10.0,Calm,Calm,-,N/A,,Clear,0,2013-02-12 06:54:00
1:54 AM,30.0,23.0,75,30.19,10.0,NNW,3.5,-,N/A,,Clear,330,2013-02-12 07:54:00
2:54 AM,28.9,21.9,75,30.17,10.0,Calm,Calm,-,N/A,,Clear,0,2013-02-12 08:54:00
3:54 AM,28.0,23.0,81,30.16,10.0,Calm,Calm,-,N/A,,Clear,0,2013-02-12 09:54:00
4:54 AM,27.0,21.9,81,30.17,10.0,Calm,Calm,-,N/A,,Clear,0,2013-02-12 10:54:00
5:54 AM,27.0,21.9,81,30.17,10.0,Calm,Calm,-,N/A,,Clear,0,2013-02-12 11:54:00
6:54 AM,26.1,21.9,84,30.15,10.0,ENE,3.5,-,N/A,,Clear,60,2013-02-12 12:54:00
7:54 AM,28.0,23.0,81,30.16,7.0,NE,3.5,-,N/A,,Clear,40,2013-02-12 13:54:00
8:54 AM,32.0,26.1,79,30.16,7.0,Calm,Calm,-,N/A,,Clear,0,2013-02-12 14:54:00
9:54 AM,33.1,25.0,72,30.13,7.0,Calm,Calm,-,N/A,,Clear,0,2013-02-12 15:54:00
10:54 AM,36.0,26.1,67,30.13,8.0,Calm,Calm,-,N/A,,Clear,0,2013-02-12 16:54:00
11:54 AM,37.9,26.1,62,30.12,9.0,Calm,Calm,-,N/A,,Clear,0,2013-02-12 17:54:00
12:54 PM,39.9,25.0,55,30.11,10.0,Calm,Calm,-,N/A,,Clear,0,2013-02-12 18:54:00
1:54 PM,41.0,23.0,49,30.07,10.0,South,3.5,-,N/A,,Clear,190,2013-02-12 19:54:00
2:54 PM,43.0,21.0,42,30.04,10.0,Calm,Calm,-,N/A,,Clear,0,2013-02-12 20:54:00
3:54 PM,43.0,21.0,42,30.01,10.0,Calm,Calm,-,N/A,,Clear,0,2013-02-12 21:54:00
4:54 PM,43.0,21.0,42,30.01,10.0,SW,3.5,-,N/A,,Mostly Cloudy,220,2013-02-12 22:54:00
5:54 PM,42.1,21.0,43,30.00,10.0,SSW,3.5,-,N/A,,Overcast,210,2013-02-12 23:54:00
6:54 PM,42.1,21.9,45,30.00,10.0,West,5.8,-,N/A,,Overcast,270,2013-02-13 00:54:00
7:54 PM,39.9,23.0,51,30.00,10.0,WSW,4.6,-,N/A,,Overcast,240,2013-02-13 01:54:00
8:54 PM,39.0,24.1,55,30.00,10.0,SSW,3.5,-,N/A,,Clear,210,2013-02-13 02:54:00
9:54 PM,36.0,24.1,62,29.99,10.0,SSW,5.8,-,N/A,,Clear,200,2013-02-13 03:54:00
10:54 PM,35.1,23.0,61,29.98,10.0,SSW,6.9,-,N/A,,Clear,210,2013-02-13 04:54:00
11:54 PM,36.0,23.0,59,29.97,10.0,Calm,Calm,-,N/A,,Clear,0,2013-02-13 05:54:00